Tracking 31027 objects as of 19-Jul-2025
HD Live streaming from Space Station
objects crossing your sky now

ARCSAT-1

Track ARCSAT-1 now!
10-day predictions
ARCSAT-1 is classified as:


NORAD ID: 52161
Int'l Code: 2022-033E
Perigee: 437.5 km
Apogee: 444.3 km
Inclination: 97.3 °
Period: 93.3 minutes
Semi major axis: 6811 km
RCS: Unknown
Launch date: April 1, 2022
Source: Norway (NOR)
Launch site: AIR FORCE EASTERN TEST RANGE (AFETR)

Uplink (MHz):
Downlink (MHz): 267.300
Beacon (MHz):
Mode: FM
Call sign:
Status: Inactive

Your satellite tracking list
No more satellites can be added for tracking (max 5)
SPACE STATION
EYESAT-1
SAUDISAT 1C
FOX-1B (RADFXSAT AO-91)
DOSAAF-85 (RS-44)
Track 5 satellite(s)




NASA's NSSDC Master Catalog

Two Line Element Set (TLE):
1 52161U 22033E   25199.88007404  .00006987  00000-0  15422-3 0  9999
2 52161  97.2926 284.3527 0004963 346.3746  13.7368 15.44189281184114
Source of the keplerian elements: AFSPC